Bell M. Shimada — WTED — position and weather

sailwx.info

Track history (hours):
 
Tides and Currents Weather Stations Pressure Air Temp Water Temp Dewpoint Dewpoint Depression Visibility Wind Speed Wind Dir Waves Ship Positions

Oceanographic research ship Bell M. Shimada (USA)

Last reported at 2018-Jun-18 19:00 UTC. Time now 2018-Jun-18 19:06 UTC.
Position N 48°05' W 125°11'.

Length 63 m; draft 6.1 m.

Type: Ship. MMSI: 369970147.

Date/timePositionNaut miles runAvg speedWind from/ knotsBaromVisibWave heightAir tempDewpointWater temp
2018-Jun-18 19:00N 48°05' W 125°11'812.3
2018-Jun-18 18:23N 47°58' W 125°14'512.3
2018-Jun-18 18:01N 47°53' W 125°16'811.7
2018-Jun-18 17:21N 47°46' W 125°15'411.7
2018-Jun-18 17:00N 47°42' W 125°14'811.5
2018-Jun-18 16:18N 47°34' W 125°11'511.4
2018-Jun-18 15:54N 47°29' W 125°09'511.8
2018-Jun-18 15:31N 47°25' W 125°08'1411.9
2018-Jun-18 14:19N 47°11' W 125°04'411.7
2018-Jun-18 14:00N 47°07' W 125°03'611.5
2018-Jun-18 13:31N 47°02' W 125°01'611.4
2018-Jun-18 13:01N 46°57' W 124°58'611.2
2018-Jun-18 12:30N 46°51' W 124°56'611.3
2018-Jun-18 12:00N 46°45' W 124°55'611.3
2018-Jun-18 11:30N 46°40' W 124°53'611.4
2018-Jun-18 11:01N 46°35' W 124°51'611.4
2018-Jun-18 10:30N 46°29' W 124°49'611.6
2018-Jun-18 10:00N 46°23' W 124°47'612.0
2018-Jun-18 09:30N 46°17' W 124°46'611.5
2018-Jun-18 09:00N 46°12' W 124°44'611.4
2018-Jun-18 08:31N 46°06' W 124°42'611.2
2018-Jun-18 08:01N 46°01' W 124°40'611.2
2018-Jun-18 07:30N 45°55' W 124°38'611.1
2018-Jun-18 06:59N 45°50' W 124°36'510.8
2018-Jun-18 06:30N 45°45' W 124°34'510.9
2018-Jun-18 06:00N 45°39' W 124°32'611.1
2018-Jun-18 05:31N 45°34' W 124°30'611.1
2018-Jun-18 05:00N 45°29' W 124°28'611.2
2018-Jun-18 04:30N 45°23' W 124°27'611.2
2018-Jun-18 04:00N 45°18' W 124°25'611.3
2018-Jun-18 03:31N 45°12' W 124°23'611.2
2018-Jun-18 03:00N 45°07' W 124°21'1010.8
2018-Jun-18 02:06N 44°57' W 124°18'410.6
2018-Jun-18 01:44N 44°53' W 124°17'210.5
2018-Jun-18 01:30N 44°51' W 124°16'14 9.9
2018-Jun-18 00:06N 44°38' W 124°10'110.8
2018-Jun-18 00:00N 44°37' W 124°09'  
Track history (hours):
 
Tides and Currents Weather Stations Pressure Air Temp Water Temp Dewpoint Dewpoint Depression Visibility Wind Speed Wind Dir Waves Ship Positions

Oceanographic research ship Bell M. Shimada (USA)

Last reported at 2018-Jun-18 19:00 UTC. Time now 2018-Jun-18 19:06 UTC.
Position N 48°05' W 125°11'.

Length 63 m; draft 6.1 m.

Type: Ship. MMSI: 369970147.

Date/timePositionNaut miles runAvg speedWind from/ knotsBaromVisibWave heightAir tempDewpointWater temp
2018-Jun-18 19:00N 48°05' W 125°11'812.3
2018-Jun-18 18:23N 47°58' W 125°14'512.3
2018-Jun-18 18:01N 47°53' W 125°16'811.7
2018-Jun-18 17:21N 47°46' W 125°15'411.7
2018-Jun-18 17:00N 47°42' W 125°14'811.5
2018-Jun-18 16:18N 47°34' W 125°11'511.4
2018-Jun-18 15:54N 47°29' W 125°09'511.8
2018-Jun-18 15:31N 47°25' W 125°08'1411.9
2018-Jun-18 14:19N 47°11' W 125°04'411.7
2018-Jun-18 14:00N 47°07' W 125°03'611.5
2018-Jun-18 13:31N 47°02' W 125°01'611.4
2018-Jun-18 13:01N 46°57' W 124°58'611.2
2018-Jun-18 12:30N 46°51' W 124°56'611.3
2018-Jun-18 12:00N 46°45' W 124°55'611.3
2018-Jun-18 11:30N 46°40' W 124°53'611.4
2018-Jun-18 11:01N 46°35' W 124°51'611.4
2018-Jun-18 10:30N 46°29' W 124°49'611.6
2018-Jun-18 10:00N 46°23' W 124°47'612.0
2018-Jun-18 09:30N 46°17' W 124°46'611.5
2018-Jun-18 09:00N 46°12' W 124°44'611.4
2018-Jun-18 08:31N 46°06' W 124°42'611.2
2018-Jun-18 08:01N 46°01' W 124°40'611.2
2018-Jun-18 07:30N 45°55' W 124°38'611.1
2018-Jun-18 06:59N 45°50' W 124°36'510.8
2018-Jun-18 06:30N 45°45' W 124°34'510.9
2018-Jun-18 06:00N 45°39' W 124°32'611.1
2018-Jun-18 05:31N 45°34' W 124°30'611.1
2018-Jun-18 05:00N 45°29' W 124°28'611.2
2018-Jun-18 04:30N 45°23' W 124°27'611.2
2018-Jun-18 04:00N 45°18' W 124°25'611.3
2018-Jun-18 03:31N 45°12' W 124°23'611.2
2018-Jun-18 03:00N 45°07' W 124°21'1010.8
2018-Jun-18 02:06N 44°57' W 124°18'410.6
2018-Jun-18 01:44N 44°53' W 124°17'210.5
2018-Jun-18 01:30N 44°51' W 124°16'14 9.9
2018-Jun-18 00:06N 44°38' W 124°10'110.8
2018-Jun-18 00:00N 44°37' W 124°09'  

Dump ship's entire track history